[[{"header":{"parameterUnit":"m.s-1","parameterCategory":1,"la1":30.2991,"la2":30.254,"lo1":-89.0895,"lo2":-89.0444,"dy":0.0017,"dx":0.0017,"nx":28,"ny":28,"refTime":"2025-09-07T03:00:00:Z","depth":0,"parameterNumber":2,"parameterNumberName":"U-component_of_WINDS"},"data":[0,0,0,0,0,0,0,0,0,0,0,0,0,0,0,0,0,0,0,0,0,0,0,0,0,0,0,0,0,0,0,0,0,0,0,0,0,0,0,0,0,0,0,0,0,0,0,0,0,0,0,0,0,0,0,0,0,0,-3.4933,-3.4932,0,-3.4864,-3.4863,-3.4862,-3.4737,-3.4735,-3.4732,-3.473,-3.4664,-3.4664,-3.4665,0,0,0,0,0,0,0,0,0,0,0,0,0,-3.496,-3.4961,-3.4933,-3.4932,-3.4931,-3.4864,-3.4863,-3.4862,-3.4737,-3.4735,-3.4732,-3.4729,-3.4663,-3.4664,-3.4665,0,0,0,0,0,0,0,0,0,0,0,0,0,-3.4926,-3.4961,-3.4933,-3.4861,-3.4854,-3.4864,-3.4863,-3.4862,-3.4738,-3.4734,-3.4731,-3.4727,-3.4663,-3.4664,-3.4665,-3.4741,0,0,-3.4667,-3.4667,0,0,0,0,0,0,0,0,-3.4928,-3.4925,-3.4872,-3.4866,-3.4858,-3.4805,-3.4848,-3.4822,-3.4739,-3.4782,-3.473,-3.4726,-3.4714,-3.471,-3.4705,-3.4738,-3.4735,-3.4667,-3.4667,-3.4668,-3.4668,0,0,0,0,0,0,0,-3.4931,-3.4927,-3.4906,-3.4872,-3.4863,-3.4833,-3.4824,-3.4843,-3.4769,-3.4778,-3.4769,-3.4762,-3.4709,-3.4705,-3.4703,-3.4734,-3.4667,-3.4668,-3.4668,-3.4668,-3.4825,-3.4829,0,0,0,0,0,0,-3.4943,-3.493,-3.4908,-3.4904,-3.4885,-3.4835,-3.4825,-3.4826,-3.4769,-3.4756,-3.4765,-3.4757,-3.4706,-3.4702,-3.47,-3.4784,-3.4668,-3.4668,-3.4669,-3.4821,-3.4826,-3.483,0,0,0,0,0,0,-3.4944,-3.4942,-3.4911,-3.4914,-3.4908,-3.4839,-3.484,-3.4826,-3.4822,-3.4759,-3.4746,-3.4774,-3.4703,-3.4699,-3.4731,-3.478,-3.4669,-3.4669,-3.4817,-3.4823,-3.4828,-3.4954,0,0,0,0,0,0,-3.4945,-3.4943,-3.4971,-3.4916,-3.4908,-3.4942,-3.4843,-3.4828,-3.4823,-3.4811,-3.4764,-3.4752,-3.4699,-3.4731,-3.4732,-3.4779,-3.467,-3.4812,-3.482,-3.4826,-3.4945,-3.4963,-3.4978,0,0,0,0,0,-3.4947,-3.501,-3.4973,-3.4971,-3.4941,-3.4945,-3.4941,-3.4877,-3.4827,-3.4854,-3.4814,-3.4754,-3.4775,-3.4735,-3.4735,-3.4783,-3.4809,-3.4817,-3.4826,-3.4937,-3.4959,-3.4978,0,0,0,0,0,0,-3.5074,-3.5002,-3.4959,-3.5007,-3.4983,-3.4924,-3.4956,-3.4903,-3.4894,-3.4883,-3.4807,-3.4797,-3.4839,-3.4815,-3.4772,-3.4854,-3.4782,-3.4791,-3.4867,-3.4888,-3.4904,-3.4908,-3.467,0,0,0,0,0,-3.5108,-3.5116,-3.5053,-3.5101,-3.5091,-3.5026,-3.5026,-3.4979,-3.4952,-3.4941,-3.4903,-3.488,-3.4881,-3.4884,-3.4882,-3.4942,-3.4929,-3.4975,-3.4992,-3.5006,-3.5014,-3.5042,-3.5061,-3.4858,-3.4857,-3.4857,0,0,-3.5177,-3.5139,-3.5149,-3.5126,-3.5101,-3.5112,-3.5019,-3.5034,-3.5042,-3.4944,-3.497,-3.4943,-3.4912,-3.4958,-3.4977,-3.4939,-3.5067,-3.5017,-3.5028,-3.5028,-3.5053,-3.5072,-3.5089,-3.4863,-3.4862,-3.4861,0,0,-3.5308,-3.5281,-3.5316,-3.5294,-3.5258,-3.5215,-3.5224,-3.5173,-3.515,-3.5175,-3.5102,-3.5111,-3.5115,-3.5095,-3.5086,-3.5211,-3.5154,-3.5213,-3.5299,-3.5328,-3.5344,-3.5357,-3.54,-3.5416,-3.5221,-3.5222,-3.5222,0,-3.5399,-3.5411,-3.5342,-3.5362,-3.5353,-3.5265,-3.53,-3.5283,-3.5249,-3.5246,-3.5205,-3.5206,-3.518,-3.5219,-3.5249,-3.5246,-3.5253,-3.5216,-3.5347,-3.536,-3.5372,-3.5411,-3.5427,-3.5229,-3.5228,-3.5227,-3.5226,0,-3.5524,-3.5534,-3.5567,-3.5534,-3.553,-3.5558,-3.5494,-3.5499,-3.5453,-3.5414,-3.5441,-3.5407,-3.5395,-3.5401,-3.5358,-3.5435,-3.5412,-3.5361,-3.5286,-3.5399,-3.5435,-3.545,-3.5239,-3.5236,-3.5234,-3.5232,0,0,-3.5731,-3.566,-3.5673,-3.5656,-3.5611,-3.5617,-3.5642,-3.5629,-3.5633,-3.5614,-3.5632,-3.5638,-3.5589,-3.5579,-3.5532,-3.5558,-3.5656,-3.5502,-3.55,-3.553,-3.5736,-3.5773,-3.5792,-3.562,-3.5622,-3.5625,-3.5738,0,-3.585,-3.5885,-3.5824,-3.5874,-3.5881,-3.5798,-3.5819,-3.5794,-3.5759,-3.5761,-3.5724,-3.5728,-3.5664,-3.5657,-3.5679,-3.564,-3.5696,-3.5631,-3.5635,-3.5636,-3.5642,-3.5811,-3.585,-3.5959,-3.5752,-3.5754,-3.5756,0,-3.5993,-3.5978,-3.6028,-3.5978,-3.5979,-3.5999,-3.5981,-3.5985,-3.5956,-3.5928,-3.5917,-3.5862,-3.5883,-3.5814,-3.5842,-3.5799,-3.5798,-3.5779,-3.5782,-3.5777,-3.5701,-3.5808,-3.5992,-3.6007,-3.5778,-3.5776,-3.5774,0,-3.6135,-3.6129,-3.6157,-3.6146,-3.609,-3.6105,-3.6083,-3.6049,-3.6045,-3.6031,-3.6028,-3.6018,-3.6012,-3.6005,-3.5949,-3.5904,-3.5983,-3.591,-3.5961,-3.5962,-3.5978,-3.5977,-3.6162,-3.5983,-3.5983,-3.5983,-3.5982,0,-3.6273,-3.6306,-3.622,-3.6237,-3.6272,-3.6203,-3.624,-3.6209,-3.6181,-3.6191,-3.612,-3.6132,-3.6058,-3.6062,-3.6019,-3.6048,-3.6047,-3.6025,-3.6012,-3.6029,-3.6032,-3.6025,-3.6015,-3.5987,-3.5986,-3.5985,-3.5984,0,-3.6436,-3.638,-3.6405,-3.635,-3.6337,-3.6365,-3.6317,-3.6332,-3.6293,-3.6307,-3.6306,-3.6246,-3.6246,-3.619,-3.6181,-3.6152,-3.6198,-3.6174,-3.6207,-3.6198,-3.6251,-3.6246,-3.6435,-3.6455,-3.6267,-3.6269,-3.6271,0,-3.6526,-3.6549,-3.6496,-3.6497,-3.6477,-3.648,-3.6475,-3.6409,-3.6407,-3.6375,-3.6393,-3.6388,-3.6379,-3.6385,-3.6341,-3.6333,-3.6306,-3.6373,-3.6305,-3.632,-3.6304,-3.6302,-3.6303,-3.6387,-3.6389,-3.6391,-3.6393,0,-3.669,-3.6661,-3.6655,-3.6641,-3.6636,-3.6622,-3.6603,-3.6608,-3.6536,-3.6537,-3.6536,-3.653,-3.6519,-3.6515,-3.6499,-3.6477,-3.6423,-3.6415,-3.6426,-3.6441,-3.6459,-3.6447,-3.6243,-3.641,-3.6408,-3.6407,-3.6406,-3.6406,-3.6817,-3.6833,-3.6797,-3.6793,-3.6772,-3.6756,-3.6766,-3.6728,-3.6726,-3.671,-3.6672,-3.6677,-3.6647,-3.662,-3.6603,-3.6607,-3.6573,-3.659,-3.6593,-3.6597,-3.6606,-3.6461,-3.6604,-3.6603,-3.6603,-3.6602,-3.6602,0,-3.6974,-3.6947,-3.6945,-3.6919,-3.6917,-3.6866,-3.6843,-3.6844,-3.6849,-3.6825,-3.6818,-3.6817,-3.6813,-3.6768,-3.6759,-3.677,-3.6745,-3.677,-3.6767,-3.6762,-3.6638,-3.6628,-3.679,-3.679,-3.679,-3.679,-3.679,-3.679,-3.7056,-3.7079,-3.7047,-3.7059,-3.7032,-3.7035,-3.7026,-3.7011,-3.6991,-3.6993,-3.6988,-3.6959,-3.6927,-3.6914,-3.6908,-3.6895,-3.6894,-3.6927,-3.6905,-3.6789,-3.6771,-3.6754,-3.6744,-3.6928,-3.6928,-3.7029,-3.703,-3.703]},{"header":{"parameterUnit":"m.s-1","parameterCategory":1,"la1":30.2991,"la2":30.254,"lo1":-89.0895,"lo2":-89.0444,"dy":0.0017,"dx":0.0017,"nx":28,"ny":28,"refTime":"2025-09-07T03:00:00:Z","depth":0,"parameterNumber":3,"parameterNumberName":"V-component_of_WINDS"},"data":[0,0,0,0,0,0,0,0,0,0,0,0,0,0,0,0,0,0,0,0,0,0,0,0,0,0,0,0,0,0,0,0,0,0,0,0,0,0,0,0,0,0,0,0,0,0,0,0,0,0,0,0,0,0,0,0,0,0,-3.7444,-3.7444,0,-3.7409,-3.7408,-3.7408,-3.7356,-3.7355,-3.7354,-3.7353,-3.7315,-3.7315,-3.7315,0,0,0,0,0,0,0,0,0,0,0,0,0,-3.7463,-3.7463,-3.7444,-3.7444,-3.7443,-3.7409,-3.7408,-3.7408,-3.7356,-3.7355,-3.7354,-3.7353,-3.7315,-3.7315,-3.7315,0,0,0,0,0,0,0,0,0,0,0,0,0,-3.7444,-3.7463,-3.7444,-3.7413,-3.741,-3.7409,-3.7408,-3.7408,-3.7356,-3.7355,-3.7353,-3.7352,-3.7315,-3.7315,-3.7315,-3.7341,0,0,-3.7314,-3.7314,0,0,0,0,0,0,0,0,-3.7445,-3.7443,-3.7418,-3.7415,-3.7412,-3.7385,-3.7401,-3.7385,-3.7357,-3.7377,-3.7353,-3.7352,-3.734,-3.7337,-3.7334,-3.7339,-3.7337,-3.7314,-3.7314,-3.7314,-3.7314,0,0,0,0,0,0,0,-3.7446,-3.7444,-3.743,-3.7418,-3.7414,-3.74,-3.7396,-3.7398,-3.7366,-3.7375,-3.7371,-3.7367,-3.7338,-3.7334,-3.7332,-3.7337,-3.7314,-3.7314,-3.7314,-3.7314,-3.7358,-3.7359,0,0,0,0,0,0,-3.7453,-3.7446,-3.7431,-3.7429,-3.7425,-3.7401,-3.7396,-3.7395,-3.7366,-3.736,-3.7369,-3.7365,-3.7335,-3.7333,-3.7331,-3.7357,-3.7314,-3.7314,-3.7314,-3.7356,-3.7358,-3.7359,0,0,0,0,0,0,-3.7453,-3.7452,-3.7433,-3.7436,-3.7433,-3.7402,-3.7401,-3.7395,-3.7392,-3.7361,-3.7355,-3.7371,-3.7334,-3.7331,-3.7338,-3.7355,-3.7314,-3.7313,-3.7355,-3.7357,-3.7359,-3.741,0,0,0,0,0,0,-3.7454,-3.7452,-3.7463,-3.7437,-3.7433,-3.7442,-3.7402,-3.7395,-3.7391,-3.7387,-3.7362,-3.7357,-3.7333,-3.7339,-3.7338,-3.7354,-3.7313,-3.7353,-3.7356,-3.7358,-3.7407,-3.7414,-3.7419,0,0,0,0,0,-3.7455,-3.7479,-3.7464,-3.7462,-3.7445,-3.7443,-3.744,-3.7413,-3.7393,-3.7402,-3.7383,-3.7357,-3.7353,-3.734,-3.7338,-3.7354,-3.7352,-3.7355,-3.7358,-3.7404,-3.7412,-3.7419,0,0,0,0,0,0,-3.7508,-3.7475,-3.7458,-3.7475,-3.7462,-3.7434,-3.7445,-3.7423,-3.7415,-3.7411,-3.7376,-3.7371,-3.7381,-3.7369,-3.7354,-3.7376,-3.7348,-3.7351,-3.7384,-3.7392,-3.7398,-3.74,-3.7313,0,0,0,0,0,-3.7522,-3.7523,-3.7494,-3.7512,-3.7506,-3.7477,-3.7475,-3.7454,-3.744,-3.7434,-3.7415,-3.74,-3.7395,-3.7393,-3.7387,-3.7405,-3.7397,-3.7415,-3.7421,-3.7426,-3.7429,-3.7434,-3.7441,-3.7369,-3.7369,-3.7369,0,0,-3.755,-3.7532,-3.7536,-3.7522,-3.751,-3.751,-3.7473,-3.7476,-3.7476,-3.7434,-3.7439,-3.7424,-3.7406,-3.7417,-3.7421,-3.7407,-3.7447,-3.743,-3.7435,-3.7434,-3.7438,-3.7445,-3.7451,-3.7371,-3.7371,-3.737,0,0,-3.7602,-3.759,-3.7602,-3.759,-3.7571,-3.7551,-3.7554,-3.7529,-3.7517,-3.7522,-3.749,-3.7488,-3.7481,-3.7468,-3.7461,-3.7505,-3.748,-3.7504,-3.7537,-3.7542,-3.7548,-3.7553,-3.7566,-3.7571,-3.7507,-3.7507,-3.7507,0,-3.7639,-3.764,-3.761,-3.7615,-3.7609,-3.7571,-3.7581,-3.7571,-3.7552,-3.7547,-3.7532,-3.752,-3.7505,-3.7512,-3.7522,-3.7518,-3.7518,-3.7506,-3.755,-3.7554,-3.7558,-3.757,-3.7576,-3.751,-3.7509,-3.7509,-3.7509,0,-3.7685,-3.7686,-3.7698,-3.768,-3.7675,-3.7683,-3.7652,-3.7651,-3.763,-3.7611,-3.7614,-3.7595,-3.7583,-3.7583,-3.7564,-3.7586,-3.7577,-3.7556,-3.7528,-3.7568,-3.7579,-3.7584,-3.7514,-3.7513,-3.7512,-3.7511,0,0,-3.7771,-3.7734,-3.7739,-3.7729,-3.7705,-3.7704,-3.7709,-3.7697,-3.7695,-3.7682,-3.7684,-3.7678,-3.7657,-3.7648,-3.7627,-3.7632,-3.7664,-3.7609,-3.7608,-3.7618,-3.7685,-3.77,-3.7706,-3.7648,-3.7649,-3.765,-3.7685,0,-3.7816,-3.7823,-3.7795,-3.7808,-3.7807,-3.777,-3.7773,-3.7758,-3.774,-3.7735,-3.7715,-3.771,-3.7684,-3.7678,-3.7682,-3.766,-3.7677,-3.7657,-3.7647,-3.7647,-3.7652,-3.7712,-3.7728,-3.7763,-3.769,-3.769,-3.7691,0,-3.787,-3.786,-3.7873,-3.7845,-3.7844,-3.7848,-3.7833,-3.783,-3.7811,-3.7797,-3.7786,-3.7761,-3.7761,-3.7734,-3.7733,-3.772,-3.7714,-3.7702,-3.7703,-3.77,-3.7671,-3.7709,-3.7774,-3.7779,-3.7698,-3.7697,-3.7697,0,-3.7928,-3.7917,-3.7923,-3.7916,-3.7885,-3.7888,-3.7875,-3.7854,-3.7848,-3.7835,-3.783,-3.7817,-3.781,-3.78,-3.777,-3.7754,-3.7771,-3.7743,-3.7758,-3.7758,-3.7762,-3.7762,-3.7826,-3.7761,-3.7761,-3.7761,-3.7761,0,-3.7981,-3.799,-3.7948,-3.7952,-3.796,-3.7927,-3.7935,-3.7918,-3.79,-3.7898,-3.7865,-3.7863,-3.7826,-3.7819,-3.7796,-3.7797,-3.7794,-3.7781,-3.7775,-3.7783,-3.7785,-3.7778,-3.7774,-3.7763,-3.7762,-3.7762,-3.7762,0,-3.8047,-3.802,-3.8023,-3.7993,-3.7985,-3.7992,-3.7965,-3.7966,-3.7945,-3.7943,-3.794,-3.7907,-3.7897,-3.7867,-3.785,-3.7834,-3.7841,-3.783,-3.7848,-3.7844,-3.7859,-3.7857,-3.792,-3.7925,-3.7859,-3.786,-3.786,0,-3.8082,-3.8088,-3.8058,-3.8054,-3.8042,-3.8037,-3.803,-3.7998,-3.7991,-3.7968,-3.7971,-3.7959,-3.7947,-3.7933,-3.7907,-3.7893,-3.788,-3.7902,-3.7877,-3.7885,-3.7877,-3.7877,-3.7876,-3.7908,-3.7908,-3.7909,-3.791,0,-3.8146,-3.8131,-3.8123,-3.811,-3.8103,-3.809,-3.8076,-3.8075,-3.8038,-3.8032,-3.8022,-3.8013,-3.7995,-3.7982,-3.7963,-3.7947,-3.7922,-3.7918,-3.792,-3.7928,-3.7938,-3.793,-3.7861,-3.7916,-3.7916,-3.7915,-3.7915,-3.7915,-3.8196,-3.8198,-3.8177,-3.8168,-3.8153,-3.814,-3.8139,-3.8117,-3.8108,-3.8091,-3.8072,-3.8063,-3.8041,-3.8013,-3.7999,-3.799,-3.7977,-3.7981,-3.7981,-3.7982,-3.7985,-3.794,-3.7987,-3.7987,-3.7986,-3.7986,-3.7986,0,-3.8256,-3.824,-3.8232,-3.8213,-3.8205,-3.8182,-3.8165,-3.8159,-3.8152,-3.8134,-3.8123,-3.8109,-3.8096,-3.8068,-3.8052,-3.805,-3.8037,-3.8046,-3.8045,-3.8042,-3.8,-3.7998,-3.8057,-3.8057,-3.8057,-3.8057,-3.8057,-3.8057,-3.8286,-3.8288,-3.8271,-3.8265,-3.8248,-3.824,-3.8231,-3.8218,-3.8203,-3.8189,-3.8178,-3.816,-3.8137,-3.8118,-3.8104,-3.8096,-3.809,-3.8103,-3.8091,-3.8052,-3.8045,-3.8039,-3.8037,-3.8102,-3.8103,-3.8133,-3.8133,-3.8133]}]]